Location: Alma
(38.7220°N, 88.9090°W)
Time: 16:47:55
(UTC-06:00)

Vanguard 2 Rocket - Pass Details

Date: 24 November 2019
Orbit: 554 x 3326 km, 32.9° (Epoch: 06 December)

Event Time Altitude Azimuth Distance (km) Brightness Sun altitude
Rises 00:13:27 0° 247° (WSW) 2,817 - -70.6°
Reaches altitude 10° 00:15:52 10° 238° (WSW) 1,837 - -70.4°
Maximum altitude 00:19:27 34° 171° (S) 926 - -70.1°
Drops below altitude 10° 00:23:23 10° 105° (ESE) 2,013 - -69.7°
Sets 00:26:10 0° 96° (E) 3,142 - -69.5°
